GW0751 Weather Reports


Display with metric or nautical units.
time (UTC)temp
F
wind
direction
speed
MPH
gust
MPH
rain 1hr
in
rain 24hr
in
rain mn
in
humidity
%
barometer
mb
20260901222847 71 270 4.0 4.0 0.00 0.00 0.02 64 1015.2
20260901222332 74 225 5.0 5.0 0.00 0.00 0.02 57 1015.2
20260901215042 74 23 6.0 6.0 0.00 0.00 0.02 57 1015.2
20260901214502 75 203 5.0 5.0 0.00 0.00 0.02 56 1015.2
20260901213327 76 248 7.0 7.0 0.00 0.00 0.02 55 1015.1
20260901212732 76 270 7.0 7.0 0.00 0.00 0.02 55 1015.0
20260901212003 74 225 5.0 5.0 0.00 0.00 0.02 56 1015.0
20260901211442 75 203 5.0 5.0 0.00 0.00 0.02 54 1015.0
20260901210927 77 225 7.0 7.0 0.00 0.00 0.02 52 1015.0
20260901210407 76 203 6.0 6.0 0.00 0.00 0.02 52 1014.9
20260901205327 76 248 7.0 7.0 0.00 0.00 0.02 54 1014.9
20260901204253 72 293 5.0 5.0 0.00 0.00 0.02 58 1014.9
20260901203213 77 225 5.0 5.0 0.00 0.00 0.02 52 1015.0
20260901202657 77 203 4.0 4.0 0.00 0.00 0.02 53 1015.1
20260901202137 77 270 7.0 7.0 0.00 0.00 0.02 54 1015.1
20260901201617 76 225 4.0 4.0 0.00 0.00 0.02 55 1015.5
20260901201057 74 270 7.0 7.0 0.00 0.00 0.02 57 1015.5
20260901200537 74 270 3.0 3.0 0.01 0.00 0.02 59 1015.3
20260901200022 73 248 4.0 4.0 0.01 0.00 0.02 60 1015.3
20260901194922 72 293 4.0 4.0 0.01 0.00 0.02 61 1015.5
20260901194407 72 203 5.0 5.0 0.01 0.00 0.02 61 1015.5
20260901193848 73 270 5.0 5.0 0.01 0.00 0.02 58 1015.5
20260901192807 73 248 4.0 4.0 0.01 0.00 0.02 61 1015.5
20260901192253 71 338 4.0 4.0 0.01 0.00 0.02 63 1015.5
20260901191753 71 225 2.0 2.0 0.01 0.00 0.02 63 1015.5
20260901191232 72 270 5.0 5.0 0.01 0.00 0.02 61 1015.5
20260901190713 73 23 4.0 4.0 0.00 0.00 0.01 60 1015.5
20260901190152 72 203 5.0 5.0 0.00 0.00 0.01 63 1015.5
20260901185638 72 270 4.0 4.0 0.00 0.00 0.01 63 1015.5
20260901185117 72 225 5.0 5.0 0.00 0.00 0.01 61 1015.5
20260901184558 73 248 5.0 5.0 0.00 0.00 0.01 61 1015.5
20260901183523 73 45 3.0 3.0 0.00 0.00 0.01 63 1015.5
20260901183002 72 248 3.0 3.0 0.00 0.00 0.01 67 1015.5
20260901181402 71 248 4.0 4.0 0.00 0.00 0.01 66 1015.5
20260901180347 73 270 5.0 5.0 0.00 0.00 0.01 67 1015.5
20260901175827 72 0 3.0 3.0 0.00 0.00 0.01 69 1015.5
20260901175308 70 270 4.0 4.0 0.00 0.00 0.01 70 1015.3
20260901174748 70 270 3.0 3.0 0.00 0.00 0.01 73 1015.3
20260901173732 67 315 3.0 3.0 0.00 0.00 0.01 78 1015.2
20260901173213 66 248 1.0 1.0 0.00 0.00 0.01 78 1015.2
20260901172653 66 270 3.0 3.0 0.00 0.00 0.01 79 1015.0
20260901172132 66 68 2.0 2.0 0.00 0.00 0.01 79 1015.0
20260901171618 65 270 4.0 4.0 0.01 0.00 0.01 79 1014.9
20260901170537 66 270 2.0 2.0 0.01 0.00 0.01 79 1014.8
20260901170017 66 225 1.0 1.0 0.01 0.00 0.01 80 1014.8
20260901165503 66 225 3.0 3.0 0.01 0.00 0.01 80 1014.8
20260901164943 65 225 3.0 3.0 0.01 0.00 0.01 81 1014.8
20260901164423 65 270 2.0 2.0 0.01 0.00 0.01 82 1014.8
20260901163348 64 270 2.0 2.0 0.01 0.00 0.01 84 1014.8
20260901162828 63 203 3.0 3.0 0.01 0.00 0.01 85 1014.8
20260901162308 63 225 1.0 1.0 0.01 0.00 0.01 87 1014.8
20260901161748 61 158 1.0 1.0 0.00 0.00 0.00 90 1014.8
20260901161233 61 225 2.0 2.0 0.00 0.00 0.00 92 1014.8
20260901160713 61 225 0.0 0.0 0.00 0.00 0.00 93 1014.8
20260901160153 60 203 0.0 0.0 0.00 0.00 0.00 94 1014.7
20260901155633 59 203 0.0 0.0 0.00 0.00 0.00 95 1014.7
20260901154558 59 270 0.0 0.0 0.00 0.00 0.00 96 1014.7
20260901154038 58 225 0.0 0.0 0.00 0.00 0.00 96 1014.6
20260901153518 58 203 0.0 0.0 0.00 0.00 0.00 96 1014.6
20260901153003 58 248 0.0 0.0 0.00 0.00 0.00 96 1014.5
20260901152443 58 248 0.0 0.0 0.00 0.00 0.00 96 1014.5
20260901151923 58 270 1.0 1.0 0.00 0.00 0.00 96 1014.5
20260901150328 57 203 0.0 0.0 0.00 0.00 0.00 96 1014.2
20260901145809 57 270 3.0 3.0 0.00 0.00 0.00 96 1014.2
20260901144733 57 248 3.0 3.0 0.00 0.00 0.00 96 1013.9
20260901144213 57 203 3.0 3.0 0.00 0.00 0.00 96 1013.7
20260901143653 57 225 0.0 0.0 0.00 0.00 0.00 96 1013.7
20260901143133 56 225 1.0 1.0 0.00 0.00 0.00 96 1013.7
20260901142058 56 248 0.0 0.0 0.00 0.00 0.00 96 1013.6
20260901141018 56 248 0.0 0.0 0.00 0.00 0.00 96 1013.4
20260901140503 56 225 0.0 0.0 0.00 0.00 0.00 96 1013.3
20260901135943 56 248 0.0 0.0 0.00 0.00 0.00 96 1013.3
20260901135443 56 180 2.0 2.0 0.00 0.00 0.00 96 1013.3
20260901134923 56 225 2.0 2.0 0.00 0.00 0.00 96 1013.1
20260901134403 56 248 1.0 1.0 0.00 0.00 0.00 96 1013.1
20260901133848 56 248 0.0 0.0 0.00 0.00 0.00 96 1013.1
20260901133328 56 270 0.0 0.0 0.00 0.00 0.00 96 1013.1
20260901132808 56 248 0.0 0.0 0.00 0.00 0.00 96 1013.0
20260901132249 56 225 0.0 0.0 0.00 0.00 0.00 96 1013.0
20260901131748 56 225 0.0 0.0 0.00 0.00 0.00 96 1012.8
20260901131233 55 248 0.0 0.0 0.00 0.00 0.00 96 1012.8
20260901130713 55 248 0.0 0.0 0.00 0.00 0.00 96 1012.8
20260901130153 55 248 0.0 0.0 0.00 0.00 0.00 96 1012.8
20260901124558 55 225 0.0 0.0 0.00 0.00 0.00 96 1012.6
20260901124038 55 180 0.0 0.0 0.00 0.00 0.00 96 1012.6
20260901123003 55 248 0.0 0.0 0.00 0.00 0.00 96 1012.6
20260901122443 55 225 0.0 0.0 0.00 0.00 0.00 96 1012.6
20260901121923 54 248 0.0 0.0 0.00 0.00 0.00 96 1012.6
20260901121403 54 225 0.0 0.0 0.00 0.00 0.00 96 1012.6
20260901120328 54 225 0.0 0.0 0.00 0.00 0.00 96 1012.6
20260901115808 54 203 0.0 0.0 0.00 0.00 0.00 96 1012.6
20260901115248 54 225 0.0 0.0 0.00 0.00 0.00 96 1012.6
20260901114733 54 248 0.0 0.0 0.00 0.00 0.00 96 1012.6
20260901114233 54 225 0.0 0.0 0.00 0.00 0.00 96 1012.6
20260901113213 53 225 0.0 0.0 0.00 0.00 0.00 96 1012.6
20260901112653 53 248 0.0 0.0 0.00 0.00 0.00 96 1012.6
20260901112133 54 225 0.0 0.0 0.00 0.00 0.00 96 1012.6
20260901111613 54 248 0.0 0.0 0.00 0.00 0.00 96 1012.6
20260901111038 54 203 0.0 0.0 0.00 0.00 0.00 96 1012.6
20260901110518 54 180 0.0 0.0 0.00 0.00 0.00 96 1013.0
20260901105958 54 248 0.0 0.0 0.00 0.00 0.00 96 1013.0
20260901105443 54 158 0.0 0.0 0.00 0.00 0.00 96 1013.0
20260901104923 54 225 0.0 0.0 0.00 0.00 0.00 96 1013.0
20260901104343 54 180 0.0 0.0 0.00 0.00 0.00 96 1013.0
20260901103828 53 203 0.0 0.0 0.00 0.00 0.00 96 1013.0
20260901102748 53 225 0.0 0.0 0.00 0.00 0.00 96 1012.9
20260901101714 52 225 0.0 0.0 0.00 0.00 0.00 96 1012.8
20260901101153 52 248 0.0 0.0 0.00 0.00 0.00 96 1012.8
20260901100113 50 248 0.0 0.0 0.00 0.00 0.00 95 1012.6
20260901095558 50 225 0.0 0.0 0.00 0.00 0.00 95 1012.6
20260901095038 50 225 0.0 0.0 0.00 0.00 0.00 95 1012.6
20260901094518 50 225 0.0 0.0 0.00 0.00 0.00 95 1012.6
20260901093443 50 225 0.0 0.0 0.00 0.00 0.00 95 1012.4
20260901092923 50 225 0.0 0.0 0.00 0.00 0.00 95 1012.4
20260901091828 50 248 0.0 0.0 0.00 0.00 0.00 95 1012.4
20260901091308 50 248 0.0 0.0 0.00 0.00 0.00 95 1012.6
20260901090809 50 225 0.0 0.0 0.00 0.00 0.00 95 1012.6
20260901090248 50 225 0.0 0.0 0.00 0.00 0.00 95 1012.4
20260901084558 51 248 0.0 0.0 0.00 0.00 0.00 95 1012.6
20260901084038 51 225 0.0 0.0 0.00 0.00 0.00 95 1012.6
20260901083518 51 225 0.0 0.0 0.00 0.00 0.00 94 1012.6
20260901082958 51 225 0.0 0.0 0.00 0.00 0.00 94 1012.2
20260901082458 51 225 0.0 0.0 0.00 0.00 0.00 94 1012.2
20260901081944 51 225 0.0 0.0 0.00 0.00 0.00 94 1012.2
20260901081423 51 248 0.0 0.0 0.00 0.00 0.00 94 1012.4
20260901080843 51 225 0.0 0.0 0.00 0.00 0.00 94 1012.4
20260901075713 51 225 0.0 0.0 0.00 0.00 0.00 94 1012.2
20260901074113 51 225 0.0 0.0 0.00 0.00 0.00 93 1012.2
20260901073558 52 225 0.0 0.0 0.00 0.00 0.00 93 1012.2
20260901073038 52 203 0.0 0.0 0.00 0.00 0.00 93 1012.2
20260901072458 52 203 0.0 0.0 0.00 0.00 0.00 93 1012.2
20260901071443 52 225 0.0 0.0 0.00 0.00 0.00 93 1012.2
20260901070923 53 203 0.0 0.0 0.00 0.00 0.00 93 1012.2
20260901070343 53 248 0.0 0.0 0.00 0.00 0.00 93 1012.2
20260901065809 53 225 0.0 0.0 0.00 0.00 0.00 93 1012.2
20260901065248 53 203 0.0 0.0 0.00 0.00 0.00 93 1012.2
20260901064729 53 158 0.0 0.0 0.00 0.00 0.00 93 1012.2
20260901064213 53 270 1.0 1.0 0.00 0.00 0.00 93 1012.2
20260901063113 54 203 0.0 0.0 0.00 0.00 0.00 93 1012.2
20260901062558 54 248 0.0 0.0 0.00 0.00 0.00 93 1012.2
20260901062038 54 180 0.0 0.0 0.00 0.00 0.00 93 1012.2
20260901061519 54 203 1.0 1.0 0.00 0.00 0.00 93 1012.4
20260901060958 54 270 0.0 0.0 0.00 0.00 0.00 93 1012.4
20260901060444 54 225 2.0 2.0 0.00 0.00 0.00 93 1012.4
20260901055924 55 225 3.0 3.0 0.00 0.00 0.00 93 1012.4
20260901055344 55 248 1.0 1.0 0.00 0.00 0.00 93 1012.4
20260901054828 55 270 2.0 2.0 0.00 0.00 0.00 92 1012.4
20260901053924 55 203 0.0 0.0 0.00 0.00 0.00 92 1012.4
20260901052808 56 248 0.0 0.0 0.00 0.00 0.00 91 1012.6
20260901052249 56 270 0.0 0.0 0.00 0.00 0.00 91 1012.6
20260901050634 56 270 0.0 0.0 0.00 0.00 0.00 90 1012.4
20260901050059 56 225 3.0 3.0 0.00 0.00 0.00 90 1012.4
20260901045018 57 270 4.0 4.0 0.00 0.00 0.00 90 1012.2
20260901044459 57 248 3.0 3.0 0.00 0.00 0.00 90 1012.2
20260901043938 57 225 4.0 4.0 0.00 0.00 0.00 90 1012.1
20260901043404 57 293 3.0 3.0 0.00 0.00 0.00 90 1012.1
20260901042844 57 248 3.0 3.0 0.00 0.00 0.00 90 1012.1
20260901041809 57 270 3.0 3.0 0.00 0.00 0.00 90 1011.9
20260901035709 57 203 4.0 4.0 0.00 0.00 0.00 90 1011.9
20260901034809 57 225 4.0 4.0 0.00 0.00 0.00 90 1011.6
20260901034249 57 0 4.0 4.0 0.00 0.00 0.00 90 1011.6
20260901033709 72 248 5.0 5.0 0.00 0.00 0.00 62 1011.1
20260831233919 71 203 6.0 6.0 0.00 0.00 0.00 63 1011.2
20260831230304 73 203 6.0 6.0 0.00 0.00 0.00 60 1011.6
20260831224629 75 203 5.0 5.0 0.00 0.00 0.00 59 1011.6